Date,Time,Air Temperature,Dewpoint,Windchill,Heat Index,RH,3m Max Wind Speed,3m Mean Wind Speed,3m Wind Direction,Rain,Solar Radiation
,,F,F,F,F,%,MPH,MPH,deg,in,MJ/m^2
2024-04-11,13:20,61.9,30.9,61.9,61.9,31.0,11.1,6.3,203.2,0.0,0.3037355
2024-04-11,13:25,61.6,30.1,61.6,61.6,30.3,11.7,6.4,216.5,0.0,0.3029793
2024-04-11,13:30,62.2,30.5,62.2,62.2,30.2,7.2,3,226.6,0.0,0.3024232
2024-04-11,13:35,62,31.5,62.0,62,31.6,10.5,6.4,156.2,0.0,0.3008491
2024-04-11,13:40,62.1,31.2,62.1,62.1,31.1,10.1,7.6,136.6,0.0,0.299792
2024-04-11,13:45,62.2,30.6,62.2,62.2,30.3,8.7,4.8,147.1,0.0,0.2985747
2024-04-11,13:50,62.4,30.3,62.4,62.4,29.6,13.5,6.2,174.6,0.0,0.2970051
2024-04-11,13:55,63.6,31,63.6,63.6,29.3,9.2,4.2,203.6,0.0,0.2954244
2024-04-11,14:00,63.8,31.2,63.8,63.8,29.4,9.3,5.1,133.9,0.0,0.2942607
2024-04-11,14:05,63.9,31.5,63.9,63.9,29.6,8.4,4.4,97.5,0.0,0.2924315
2024-04-11,14:10,65.9,29.7,65.9,65.9,25.6,13.7,6.4,137.2,0.0,0.2900188
2024-04-11,14:15,65.5,29.7,65.5,65.5,26.0,15.8,11,183.5,0.0,0.2868587
2024-04-11,14:20,66.3,30.1,66.3,66.3,25.7,11.4,7.8,186.1,0.0,0.284843
2024-04-11,14:25,66.6,29.6,66.6,66.6,25.0,13.9,9.5,214.8,0.0,0.2830511
2024-04-11,14:30,66.7,28.9,66.7,66.7,24.1,14,9.1,192.2,0.0,0.2805263
2024-04-11,14:35,67,29.7,67.0,67,24.8,13.3,8.1,186.6,0.0,0.2780974
2024-04-11,14:40,67.5,29.2,67.5,67.5,23.8,18.1,8.9,196.6,0.0,0.275757
2024-04-11,14:45,67.6,29.1,67.6,67.6,23.6,17.7,13.3,185.9,0.0,0.2732622
2024-04-11,14:50,68.1,29.5,68.1,68.1,23.6,16.2,9.7,174.9,0.0,0.2696752
2024-04-11,14:55,67.8,28.3,67.8,67.8,22.7,15.8,11,202.2,0.0,0.2663552
2024-04-11,15:00,67.6,28.4,67.6,67.6,23.0,14.1,10.2,205.7,0.0,0.2612759
2024-04-11,15:05,68.8,28.7,68.8,68.8,22.3,14.1,8.8,206.2,0.0,0.2581013
2024-04-11,15:10,68.3,29,68.3,68.3,23.0,14.9,8.7,180.7,0.0,0.2545702
2024-04-11,15:15,69.3,29.4,69.3,69.3,22.5,13.6,8.4,208.8,0.0,0.2506864
2024-04-11,15:20,69.2,29.2,69.2,69.2,22.5,20.2,12,183.2,0.0,0.2465987
2024-04-11,15:25,69.2,27.9,69.2,69.2,21.3,16.3,9,202.8,0.0,0.2422684
2024-04-11,15:30,70,29.3,70.0,70,21.9,16.7,9.1,199.6,0.0,0.238748
2024-04-11,15:35,70.1,29.1,70.1,70.1,21.6,16.2,10.9,222.4,0.0,0.2351176
2024-04-11,15:40,69.5,29.5,69.5,69.5,22.5,12.5,8.2,187.4,0.0,0.2295434
2024-04-11,15:45,69.6,29.3,69.6,69.6,22.2,14,10.9,181,0.0,0.2253086
2024-04-11,15:50,69.8,28.9,69.8,69.8,21.7,22.8,12.1,169.7,0.0,0.2206105
2024-04-11,15:55,69.5,27.6,69.5,69.5,20.8,15.6,9.6,221.7,0.0,0.1980183
2024-04-11,16:00,70.8,27.4,70.8,70.8,19.7,14.8,8.7,214.5,0.0,0.2115841
2024-04-11,16:05,70.2,26.1,70.2,70.2,19.1,18.2,10.6,200.2,0.0,0.2065655
2024-04-11,16:10,71.3,26.4,71.3,71.3,18.6,15.2,11.9,214.4,0.0,0.202314
2024-04-11,16:15,70.7,25.9,70.7,70.7,18.6,14.4,10.8,201.7,0.0,0.1969617
2024-04-11,16:20,71,27.2,71.0,71,19.5,15.9,9.7,202.6,0.0,0.1915547
2024-04-11,16:25,70.8,26.3,70.8,70.8,18.9,14.4,9.6,213,0.0,0.1865427
2024-04-11,16:30,70.4,25,70.4,70.4,18.1,14.6,10.5,210.7,0.0,0.1819482
2024-04-11,16:35,70.6,25.5,70.6,70.6,18.4,12.4,6.1,226.3,0.0,0.1766615
2024-04-11,16:40,70.7,25.4,70.7,70.7,18.2,12.5,8.5,214.3,0.0,0.171379
2024-04-11,16:45,70.5,25.1,70.5,70.5,18.2,16.9,11.6,214,0.0,0.1666563
2024-04-11,16:50,70.7,25.6,70.7,70.7,18.4,11.6,8.9,225.2,0.0,0.1606994
2024-04-11,16:55,70.9,25.7,70.9,70.9,18.4,13,8.8,210.1,0.0,0.1556532
2024-04-11,17:00,71.3,26,71.3,71.3,18.3,11.5,8.6,223.2,0.0,0.1500998
2024-04-11,17:05,71,25.7,71.0,71,18.3,16.4,9.5,209.4,0.0,0.1442107
2024-04-11,17:10,70.8,25.7,70.8,70.8,18.4,13.8,8.4,208.5,0.0,0.1382454
2024-04-11,17:15,70.5,25.7,70.5,70.5,18.6,13.6,9.1,216.2,0.0,0.1324951
2024-04-11,17:20,70.9,25.3,70.9,70.9,18.1,13.9,8.5,228.1,0.0,0.1269979
2024-04-11,17:25,71.2,26.7,71.2,71.2,18.9,13,8,196.9,0.0,0.1212706
2024-04-11,17:30,70.4,26.3,70.4,70.4,19.1,13.2,10.1,186.2,0.0,0.1155124
2024-04-11,17:35,70.4,26,70.4,70.4,18.9,13,9.3,186.5,0.0,0.1102264
2024-04-11,17:40,70.6,26.4,70.6,70.6,19.1,11.5,8.2,188.4,0.0,0.1045067
2024-04-11,17:45,70.4,26,70.4,70.4,18.9,13.2,10.6,183.9,0.0,0.09944165
2024-04-11,17:50,70.4,26.1,70.4,70.4,19,11.9,9.3,178.2,0.0,0.09396613
2024-04-11,17:55,70.2,26.1,70.2,70.2,19.1,13.9,10.9,172.6,0.0,0.08830722
2024-04-11,18:00,70.6,26.5,70.6,70.6,19.2,13.8,10.1,186.6,0.0,0.08304878
2024-04-11,18:05,70.1,26.2,70.1,70.1,19.2,12.7,9.9,168.5,0.0,0.07779112
2024-04-11,18:10,70.2,26.7,70.2,70.2,19.6,12.8,8.7,174.2,0.0,0.07240014
2024-04-11,18:15,70.1,26.4,70.1,70.1,19.4,14.7,10.2,182.5,0.0,0.06713711
2024-04-11,18:20,70,26.4,70.0,70,19.5,13.9,8.6,167.1,0.0,0.06214144
2024-04-11,18:25,69.8,26.5,69.8,69.8,19.6,12.8,9.8,168.1,0.0,0.05717141
2024-04-11,18:30,69.7,26.6,69.7,69.7,19.8,15.3,11,163.2,0.0,0.05197021
2024-04-11,18:35,69.5,26.6,69.5,69.5,19.9,14.5,10.8,169.1,0.0,0.04702982
2024-04-11,18:40,69.2,26.2,69.2,69.2,19.9,12.6,9.4,171.6,0.0,0.04214431
2024-04-11,18:45,69,26.8,69.0,69,20.4,12,8.8,166.8,0.0,0.03708455
2024-04-11,18:50,68.7,26.8,68.7,68.7,20.7,10.3,7.3,161.9,0.0,0.03204382
2024-04-11,18:55,68.6,27,68.6,68.6,20.9,10.5,7.6,152,0.0,0.02726785
2024-04-11,19:00,68.3,27.2,68.3,68.3,21.3,10,7,148.3,0.0,0.02232397
2024-04-11,19:05,67.7,27.2,67.7,67.7,21.8,10.8,6.3,156.8,0.0,0.01465456
2024-04-11,19:10,66.7,27.6,66.7,66.7,22.9,8,6.3,159.4,0.0,0.01251973
2024-04-11,19:15,66.2,27.6,66.2,66.2,23.3,8.7,6.1,154.6,0.0,0.00834104
2024-04-11,19:20,65.3,27.6,65.3,65.3,24,8.1,5.7,156,0.0,0.00423041
2024-04-11,19:25,64.3,27.7,64.3,64.3,25.0,6.8,5,157.1,0.0,0.0007697699
2024-04-11,19:30,63.9,27.6,63.9,63.9,25.2,7,5.2,154.1,0.0,-0.00008375999
2024-04-11,19:35,63.7,27.6,63.7,63.7,25.4,7.5,5.4,153.7,0.0,-0.0005792
2024-04-11,19:40,63.3,27.9,63.3,63.3,26.0,7.4,5.4,148.6,0.0,-0.0009616499
2024-04-11,19:45,62.9,27.9,62.9,62.9,26.5,6.2,4.9,144.7,0.0,-0.00115526
2024-04-11,19:50,62.1,28.1,62.1,62.1,27.4,6.7,4.9,141.2,0.0,-0.00130443
2024-04-11,19:55,61.6,28.4,61.6,61.6,28.3,6.3,4.7,148.7,0.0,-0.0012585
2024-04-11,20:00,61,28.3,61.0,61,28.7,6.7,5,149.2,0.0,-0.00121686
2024-04-11,20:05,60.6,28.5,60.6,60.6,29.4,7.2,4.9,142.7,0.0,-0.00123506
2024-04-11,20:10,60.3,28.7,60.3,60.3,30.0,6.6,5,136.6,0.0,-0.00122874
2024-04-11,20:15,59.7,28.8,59.7,59.7,30.8,5.7,4.5,138.3,0.0,-0.00126437
2024-04-11,20:20,59.4,29.1,59.4,59.4,31.5,5.9,4.8,125,0.0,-0.00130446
2024-04-11,20:25,58.1,29.6,58.1,58.1,33.5,6.1,4.6,112,0.0,-0.00145397
2024-04-11,20:30,57.3,29.8,57.3,57.3,35.0,6.4,5,116.8,0.0,-0.00139606
2024-04-11,20:35,57.7,30.2,57.7,57.7,35.0,9.6,5.8,120,0.0,-0.001242
2024-04-11,20:40,58.1,30.3,58.1,58.1,34.6,8.7,6,126.4,0.0,-0.00112232
2024-04-11,20:45,58.2,30.5,58.2,58.2,34.7,9.3,6.1,129.9,0.0,-0.00112812
2024-04-11,20:50,58.2,30.6,58.2,58.2,35.0,7.6,5.9,131.1,0.0,-0.00117125
2024-04-11,20:55,57.8,31.4,57.8,57.8,36.6,10.1,6.8,123.3,0.0,-0.00122709
2024-04-11,21:00,57,31.4,57.0,57,37.7,8.9,6.2,124.6,0.0,-0.00129128
2024-04-11,21:05,56.9,31.5,56.9,56.9,37.9,8.5,7,123.1,0.0,-0.0012191
2024-04-11,21:10,56.6,31.6,56.6,56.6,38.6,9.4,7.2,122.5,0.0,-0.00123324
2024-04-11,21:15,56.4,31.6,56.4,56.4,38.7,7.8,5.2,127.9,0.0,-0.00121351
2024-04-11,21:20,55.9,31.8,55.9,55.9,39.9,6,4.3,132.6,0.0,-0.00128579
2024-04-11,21:25,55.3,31.8,55.3,55.3,40.7,5.4,3.7,144.8,0.0,-0.00124331
2024-04-11,21:30,54.8,31.8,54.8,54.8,41.3,4.5,3.9,132,0.0,-0.0011504
2024-04-11,21:35,54.6,31.8,54.6,54.6,41.7,5.3,3.9,122,0.0,-0.0012442
2024-04-11,21:40,53.9,32.2,53.9,53.9,43.6,8.2,4.7,104.2,0.0,-0.00130955
2024-04-11,21:45,54.1,31.8,54.1,54.1,42.5,7.8,5.2,110.2,0.0,-0.00120751
2024-04-11,21:50,55,31.2,55.0,55,40.1,5.7,4.3,131.9,0.0,-0.0009621499
2024-04-11,21:55,54.7,31.5,54.7,54.7,41.0,4.6,2.5,126.1,0.0,-0.00128767
2024-04-11,22:00,54.4,31.5,54.4,54.4,41.5,3.4,2.6,150.5,0.0,-0.00117133
2024-04-11,22:05,54.4,31.3,54.4,54.4,41.2,4.4,2.9,140.6,0.0,-0.00102624
2024-04-11,22:10,53.7,31.3,53.7,53.7,42.1,4.9,3.4,114.5,0.0,-0.00127064
2024-04-11,22:15,53,31.5,53.0,53,43.8,3.9,2.9,99.5,0.0,-0.00136681
2024-04-11,22:20,52.8,31.6,52.8,52.8,44.3,4,2.9,95.3,0.0,-0.00127854
2024-04-11,22:25,53.4,31.5,53.4,53.4,43.0,5,3.5,100.6,0.0,-0.00116756
2024-04-11,22:30,53.5,31.4,53.5,53.5,42.8,5.5,3.6,91.3,0.0,-0.00121176
2024-04-11,22:35,53.6,31.4,53.6,53.6,42.6,4.2,2.1,67.1,0.0,-0.00125757
2024-04-11,22:40,54.1,31.3,54.1,54.1,41.6,4,2.9,72.0,0.0,-0.00116042
2024-04-11,22:45,54.1,31,54.1,54.1,41.1,5.4,4,86.8,0.0,-0.00118303
2024-04-11,22:50,54.5,29.2,54.5,54.5,37.8,5.2,3.5,137,0.0,-0.00104856
2024-04-11,22:55,56.2,28.7,56.2,56.2,34.7,7.3,4.9,151.7,0.0,-0.0006649999
2024-04-11,23:00,56.5,28.8,56.5,56.5,34.5,5.9,3.7,161,0.0,-0.0008355899
2024-04-11,23:05,55.7,29.4,55.7,55.7,36.4,4.4,2.6,138.1,0.0,-0.00129887
2024-04-11,23:10,55.1,29.3,55.1,55.1,37.1,2.3,1.4,181.5,0.0,-0.00136664
2024-04-11,23:15,55.3,29.2,55.3,55.3,36.6,3.4,1.9,139.6,0.0,-0.00116165
2024-04-11,23:20,55.3,28.9,55.3,55.3,36.1,5.2,2.6,154.5,0.0,-0.00100839
2024-04-11,23:25,55.3,29.1,55.3,55.3,36.5,8.6,5.2,152.3,0.0,-0.00088926
2024-04-11,23:30,54.4,29.2,54.4,54.4,37.8,5.8,3.3,137.2,0.0,-0.0013174
2024-04-11,23:35,55.3,28.9,55.3,55.3,36.1,10.3,5.6,175.5,0.0,-0.00080153
2024-04-11,23:40,56.1,28.7,56.1,56.1,34.9,9.8,6.6,180.1,0.0,-0.00072171
2024-04-11,23:45,55.8,28.4,55.8,55.8,34.8,10.5,5.5,167.7,0.0,-0.0009364599
2024-04-11,23:50,56.3,28.2,56.3,56.3,34.0,13,7.2,195.1,0.0,-0.00078544
2024-04-11,23:55,56.1,28.3,56.1,56.1,34.3,12.7,7.1,193.2,0.0,-0.0009538099
2024-04-12,00:00,55.5,28.2,55.5,55.5,35,10.9,6.4,192.8,0.0,-0.00105581
2024-04-12,00:05,55.5,28.4,55.5,55.5,35.2,12.8,8,190.1,0.0,-0.0009289099
2024-04-12,00:10,55.9,28.5,55.9,55.9,34.8,10.9,8,183.4,0.0,-0.00086317
2024-04-12,00:15,56.1,28.5,56.1,56.1,34.5,13.1,9.9,174.2,0.0,-0.00084116
2024-04-12,00:20,55.8,28.4,55.8,55.8,34.8,12,7.9,171,0.0,-0.0009913399
2024-04-12,00:25,55.8,28.9,55.8,55.8,35.4,11.2,6.4,152.6,0.0,-0.00102256
2024-04-12,00:30,54.4,29.9,54.4,54.4,39.1,10.7,7.4,157.3,0.0,-0.00126114
2024-04-12,00:35,54.1,30.1,54.1,54.1,39.7,10.7,8.2,157,0.0,-0.0010677
2024-04-12,00:40,53.9,30.5,53.9,53.9,40.6,11.4,8.1,151.8,0.0,-0.00104464
2024-04-12,00:45,53.3,31,53.3,53.3,42.4,12.3,8.8,149.9,0.0,-0.00104377
2024-04-12,00:50,53.3,30.9,53.3,53.3,42.3,10.2,8.2,170.7,0.0,-0.00093318
2024-04-12,00:55,53.4,30.6,53.4,53.4,41.7,10.7,8.4,168.5,0.0,-0.0008971199
2024-04-12,01:00,53,30.9,53.0,53,42.6,10.5,8.3,166.8,0.0,-0.0009477899
2024-04-12,01:05,53.1,31,53.1,53.1,42.6,12.6,9,168.3,0.0,-0.00088527
2024-04-12,01:10,52.9,31,52.9,52.9,43.0,10.7,7.9,172.4,0.0,-0.0009850399
2024-04-12,01:15,52.5,30.9,52.5,52.5,43.5,8.7,6.1,172.2,0.0,-0.00102288
2024-04-12,01:20,52.2,30.8,52.2,52.2,43.9,3.9,2.8,169.9,0.0,-0.00118273
2024-04-12,01:25,51.9,31,51.9,51.9,44.6,2.8,1.7,169.2,0.0,-0.00121382
2024-04-12,01:30,52,31.8,52.0,52,45.8,5.2,2.9,229,0.0,-0.0009628499
2024-04-12,01:35,52.4,32.4,52.4,52.4,46.3,8.5,4.3,204.8,0.0,-0.00074977
2024-04-12,01:40,52.7,32.5,52.7,52.7,46,7.2,5.1,207.1,0.0,-0.00074787
2024-04-12,01:45,52.8,32.7,52.8,52.8,46.3,9.6,5.9,202.8,0.0,-0.0007966899
2024-04-12,01:50,51.7,33,51.7,51.7,48.8,9.4,4.8,210.6,0.0,-0.00109033
2024-04-12,01:55,51.4,33.2,51.4,51.4,49.5,7.5,4.4,212.5,0.0,-0.00103767
2024-04-12,02:00,51.1,33.3,51.1,51.1,50.4,6.2,3.6,178.3,0.0,-0.00108042
2024-04-12,02:05,50.6,33.1,50.6,50.6,50.9,3.3,1.5,187,0.0,-0.00125319
2024-04-12,02:10,51.1,32.6,51.1,51.1,49.1,2.3,1.1,307.7,0.0,-0.00136484
2024-04-12,02:15,51,32.8,51.0,51,49.6,2.8,1.9,328.6,0.0,-0.00130861
2024-04-12,02:20,50.5,33,50.5,50.5,50.9,3.7,1.9,285,0.0,-0.00125566
2024-04-12,02:25,51.2,32.9,51.2,51.2,49.5,5.1,2.9,225.7,0.0,-0.00078547
2024-04-12,02:30,51.3,32.7,51.3,51.3,48.8,5.2,2.8,170.1,0.0,-0.0008970199
2024-04-12,02:35,51.6,32.3,51.6,51.6,47.4,6,2.8,94.8,0.0,-0.00111844
2024-04-12,02:40,50.8,32.3,50.8,50.8,48.8,4.2,2.9,96.4,0.0,-0.00126802
2024-04-12,02:45,50.7,32.6,50.7,50.7,49.8,4.5,3,125.4,0.0,-0.00116477
2024-04-12,02:50,51,32.6,51.0,51,49.3,6.7,3.9,158.5,0.0,-0.0008061199
2024-04-12,02:55,50.8,33,50.8,50.8,50.2,7.6,5.9,176.7,0.0,-0.0007925199
2024-04-12,03:00,50.4,32.8,50.4,50.4,50.9,6.4,5.3,179.6,0.0,-0.0009045799
2024-04-12,03:05,50.6,32.9,50.6,50.6,50.5,6.9,4.8,188.9,0.0,-0.00088062
2024-04-12,03:10,50.5,32.9,50.5,50.5,50.7,6.3,4.5,195.3,0.0,-0.00091523
2024-04-12,03:15,50,33,50.0,50,51.8,7.4,5.6,183.7,0.0,-0.0009101499
2024-04-12,03:20,50,33.1,50.0,50,52.1,7.9,5.5,191.6,0.0,-0.0008879399
2024-04-12,03:25,50.7,33.1,50.7,50.7,50.6,9.4,7.3,190.6,0.0,-0.0007617099
2024-04-12,03:30,50.5,33,50.5,50.5,50.8,10.2,7.9,185.8,0.0,-0.0008135699
2024-04-12,03:35,51.1,32.9,51.1,51.1,49.7,13.4,9.9,186.9,0.0,-0.00073039
2024-04-12,03:40,51.4,33,51.4,51.4,49.3,15.7,11.5,188.2,0.0,-0.00075001
2024-04-12,03:45,51,33.2,51.0,51,50.4,15.6,11.7,189,0.0,-0.00092438
2024-04-12,03:50,50.8,33.2,50.8,50.8,50.7,14.1,10.6,193.7,0.0,-0.00089337
2024-04-12,03:55,50.7,33,50.7,50.7,50.5,15.9,10.1,191.8,0.0,-0.0009072999
2024-04-12,04:00,50.4,33,50.4,50.4,51.0,10,6.5,203,0.0,-0.00100383
2024-04-12,04:05,49.5,33.1,49.5,49.5,53.0,8.5,5.5,205.1,0.0,-0.00108821
2024-04-12,04:10,49.2,32.9,49.2,49.2,53.2,8.1,5.6,205.1,0.0,-0.0009559699
2024-04-12,04:15,49.3,32.9,49.3,49.3,52.9,7.6,4.9,209.1,0.0,-0.00089805
2024-04-12,04:20,49.1,32.8,49.1,49.1,53.1,5.9,3.4,218.2,0.0,-0.0009934099
2024-04-12,04:25,49,32.7,49.0,49,53.4,4,2.1,209.5,0.0,-0.00108907
2024-04-12,04:30,49,32.7,49.0,49,53.1,6.6,3.1,210.8,0.0,-0.0008545899
2024-04-12,04:35,48.3,32.6,48.3,48.3,54.5,2.9,2.1,225.8,0.0,-0.00104597
2024-04-12,04:40,48.2,32.6,48.2,48.2,54.7,3.3,2.2,240.1,0.0,-0.0010185
2024-04-12,04:45,47.9,32.5,47.9,47.9,54.9,2.8,2.3,208.9,0.0,-0.0008708799
2024-04-12,04:50,47.8,32.4,47.8,47.8,54.9,4,2.7,199.3,0.0,-0.00083456
2024-04-12,04:55,48.2,32.4,48.2,48.2,54.2,7.8,4.4,193.7,0.0,-0.00063928
2024-04-12,05:00,49.2,32.2,49.2,49.2,51.8,7.2,5,199.6,0.0,-0.00057992
2024-04-12,05:05,49.2,32.2,49.2,49.2,51.8,6.9,4.1,210.5,0.0,-0.0007624099
2024-04-12,05:10,48.5,32.1,48.5,48.5,52.8,3.6,2.5,226.1,0.0,-0.00106519
2024-04-12,05:15,47.7,31.9,47.7,47.7,54.1,4.8,2.3,281.3,0.0,-0.00126714
2024-04-12,05:20,47,31.8,47.0,47,55.5,3.5,2.4,276.1,0.0,-0.00118173
2024-04-12,05:25,47.1,31.4,47.1,47.1,54.3,5.2,2.4,226.5,0.0,-0.0009160899
2024-04-12,05:30,48.1,31,48.1,48.1,51.6,4.5,2.2,195.9,0.0,-0.00072611
2024-04-12,05:35,47.9,31.1,47.9,47.9,51.9,3.8,1.6,93.8,0.0,-0.00104952
2024-04-12,05:40,48.2,30.6,48.2,48.2,50.3,2.1,0.9,277.4,0.0,-0.0008957899
2024-04-12,05:45,46.5,32,46.5,46.5,56.8,5,3.8,22.8,0.0,-0.00126514
2024-04-12,05:50,46.3,32,46.3,46.3,57.1,4.3,2.7,5.2,0.0,-0.00125508
2024-04-12,05:55,46.1,31.9,46.1,46.1,57.5,3.1,2.4,29.2,0.0,-0.00119661
2024-04-12,06:00,47.2,31.4,47.2,47.2,54.1,3.8,2.5,32.3,0.0,-0.0009794999
2024-04-12,06:05,47.8,31.3,47.8,47.8,52.6,3.4,1.4,36.9,0.0,-0.00110783
2024-04-12,06:10,47.1,31,47.1,47.1,53.4,2.2,1.2,53.6,0.0,-0.00103993
2024-04-12,06:15,47.4,31,47.4,47.4,52.6,5.8,3.6,43.3,0.0,-0.0006857599
2024-04-12,06:20,47.6,30.9,47.6,47.6,52.1,3.7,2.8,41.3,0.0,-0.00045446
2024-04-12,06:25,48.1,30.6,48.1,48.1,50.7,4.3,3.6,51.1,0.0,0.00023373
2024-04-12,06:30,47.9,30.6,47.9,47.9,51.0,4.4,3.7,46.5,0.0,0.00126823
2024-04-12,06:35,48.8,30.3,48.8,48.8,48.8,4.2,2.4,36.5,0.0,0.00327727
2024-04-12,06:40,49.2,30,49.2,49.2,47.4,1.1,0.6,35,0.0,0.00424247
2024-04-12,06:45,49.3,29.8,49.3,49.3,46.7,2.8,1.2,159.4,0.0,0.01190345
2024-04-12,06:50,50.7,29.6,50.7,50.7,44.0,3.3,2.5,213.2,0.0,0.01951665
2024-04-12,06:55,50.7,30.5,50.7,50.7,45.6,3.2,1.5,189.1,0.0,0.02404623
2024-04-12,07:00,50.7,30.3,50.7,50.7,45.3,1.4,0.8,95,0.0,0.02868038
2024-04-12,07:05,51.2,30.2,51.2,51.2,44.3,1.5,1.1,35.7,0.0,0.03374192
2024-04-12,07:10,50.6,30.8,50.6,50.6,46.5,2.7,1.9,0.2,0.0,0.03879969
2024-04-12,07:15,51.5,31.5,51.5,51.5,46.3,2.4,1.3,34.3,0.0,0.04375214
2024-04-12,07:20,52.9,31.4,52.9,52.9,43.7,0.9,0.2,79.5,0.0,0.04878687
2024-04-12,07:25,53.7,29.7,53.7,53.7,39.7,3.6,0.9,207.8,0.0,0.05377706
2024-04-12,07:30,53.8,30.5,53.8,53.8,40.8,3.1,2.3,198.2,0.0,0.0592189
2024-04-12,07:35,53.9,30.7,53.9,53.9,40.9,3.5,2.2,195.3,0.0,0.0645486
2024-04-12,07:40,54.7,31.3,54.7,54.7,40.7,2.8,1.8,166.2,0.0,0.06986023
2024-04-12,07:45,55.7,31,55.7,55.7,38.8,1.6,0.9,169.1,0.0,0.07525636
2024-04-12,07:50,56.1,31.1,56.1,56.1,38.5,2.5,1.3,172.3,0.0,0.08033699
2024-04-12,07:55,56.4,29.9,56.4,56.4,36.2,2.6,1.4,203.7,0.0,0.0857048
2024-04-12,08:00,56.8,30.4,56.8,56.8,36.5,3.6,2,174.3,0.0,0.09104364
2024-04-12,08:05,56.8,29.9,56.8,56.8,35.6,3.9,2.7,161.3,0.0,0.09689814
2024-04-12,08:10,57,30.3,57.0,57,36.0,4.3,2.5,193.8,0.0,0.1024444
2024-04-12,08:15,57.8,29.7,57.8,57.8,34.2,3.5,1.9,204.2,0.0,0.108185
2024-04-12,08:20,58.2,29.7,58.2,58.2,33.6,3.4,1.3,234.5,0.0,0.113611
2024-04-12,08:25,58.7,30.5,58.7,58.7,34.2,3.5,1.8,269.9,0.0,0.1189287
2024-04-12,08:30,59.2,30.4,59.2,59.2,33.4,4.1,2.5,192.4,0.0,0.1247892
2024-04-12,08:35,58.9,32.2,58.9,58.9,36.3,4.7,3.1,271.5,0.0,0.1306375
2024-04-12,08:40,59.8,30.2,59.8,59.8,32.4,4.6,3.2,197.4,0.0,0.1361753
2024-04-12,08:45,59.9,30,59.9,59.9,32.1,7,4.1,264,0.0,0.1423013
2024-04-12,08:50,60.3,29.8,60.3,60.3,31.3,6.8,3.7,335.3,0.0,0.1479267
2024-04-12,08:55,60.8,27.2,60.8,60.8,27.7,5.7,2.3,244.2,0.0,0.1532567
2024-04-12,09:00,61.2,29.4,61.2,61.2,30.0,6.6,4,310.3,0.0,0.1592083
2024-04-12,09:05,61.9,29.1,61.9,61.9,28.8,5.1,3.1,274.4,0.0,0.1460501
2024-04-12,09:10,61.6,28.6,61.6,61.6,28.5,6.1,4.3,314.4,0.0,0.1706511
2024-04-12,09:15,62.1,28.3,62.1,62.1,27.7,6.3,4,326.8,0.0,0.1766687
2024-04-12,09:20,62.3,29.4,62.3,62.3,28.7,5.8,3.9,305.2,0.0,0.1820472
2024-04-12,09:25,63,28.7,63.0,63,27.3,5.1,3.3,315.6,0.0,0.187239
2024-04-12,09:30,63.1,29,63.1,63.1,27.5,5.4,3.5,320.6,0.0,0.1924292
2024-04-12,09:35,63.2,29.2,63.2,63.2,27.7,5.5,3.1,352.3,0.0,0.1977626
2024-04-12,09:40,63.9,29.9,63.9,63.9,27.7,7,4.7,317.6,0.0,0.2031458
2024-04-12,09:45,64.1,30,64.1,64.1,27.7,7,4.9,315.2,0.0,0.207812
2024-04-12,09:50,64.5,29.4,64.5,64.5,26.6,6.7,4.2,312.2,0.0,0.2129256
2024-04-12,09:55,66.1,29.6,66.1,66.1,25.4,5.8,3.7,289.5,0.0,0.2180922
2024-04-12,10:00,65.8,29.2,65.8,65.8,25.3,7.3,3.7,285.3,0.0,0.2226606
2024-04-12,10:05,66.3,29.4,66.3,66.3,25.1,8.1,4.4,290.8,0.0,0.2276451
2024-04-12,10:10,66.7,28.7,66.7,66.7,23.9,7.2,4.9,298.3,0.0,0.2323178
2024-04-12,10:15,67.2,29.4,67.2,67.2,24.2,7.6,4.9,319.7,0.0,0.2368127
2024-04-12,10:20,68.6,29.9,68.6,68.6,23.5,7.6,4.1,300.5,0.0,0.2406407
2024-04-12,10:25,69.2,29,69.2,69.2,22.3,7.2,4.5,315,0.0,0.245044
2024-04-12,10:30,69,28.9,69.0,69,22.3,8.2,5.1,310.7,0.0,0.2491922
2024-04-12,10:35,70.4,27.6,70.4,70.4,20.2,5.3,3.5,304.7,0.0,0.2531794
2024-04-12,10:40,71.7,27.8,71.7,71.7,19.4,7.3,4.4,306.6,0.0,0.2571259
2024-04-12,10:45,72.7,28.6,72.7,72.7,19.5,8.2,4.6,274.8,0.0,0.2614131
2024-04-12,10:50,72.8,26.3,72.8,72.8,17.6,7.5,4.7,248.6,0.0,0.2657389
2024-04-12,10:55,73,25.4,73.0,73,16.9,8.5,5.7,229.4,0.0,0.2688164
2024-04-12,11:00,73.7,26.7,73.7,73.7,17.4,8.4,6.1,239.7,0.0,0.2724598
2024-04-12,11:05,74.1,25.5,74.1,74.1,16.3,10.4,7.8,238,0.0,0.2759791
2024-04-12,11:10,74.6,25.6,74.6,74.6,16.1,9.2,5,250.4,0.0,0.2791895
2024-04-12,11:15,75,24.8,75.0,75,15.4,7.9,3.5,224.8,0.0,0.2816117
2024-04-12,11:20,76.2,25.7,76.2,76.2,15.4,10.8,6.2,193.4,0.0,0.2848644
2024-04-12,11:25,75.7,25,75.7,75.7,15.1,7.9,4.4,276.5,0.0,0.2884769
2024-04-12,11:30,77.1,23.8,77.1,77.1,13.8,9.1,6.3,221.2,0.0,0.2915354
2024-04-12,11:35,76.2,24.2,76.2,76.2,14.4,8.6,4.4,230.5,0.0,0.2932006
2024-04-12,11:40,76.6,22,76.6,76.6,13.0,11.3,6.4,233.6,0.0,0.2954215
2024-04-12,11:45,76.9,22.2,76.9,76.9,12.9,10.4,4.9,212.8,0.0,0.2983883
2024-04-12,11:50,78.1,23.8,78.1,78.1,13.3,10.2,6.9,187.2,0.0,0.3006293
2024-04-12,11:55,78.9,23.6,78.9,78.9,12.8,9.9,5,237.3,0.0,0.3028879
2024-04-12,12:00,78.5,23.1,78.5,78.5,12.7,13.6,6.1,222.4,0.0,0.3042824
2024-04-12,12:05,78.9,22.9,78.9,78.9,12.4,9.9,7.8,211.6,0.0,0.3058917
2024-04-12,12:10,78.8,22.1,78.8,78.8,12.1,13.9,9.2,212.4,0.0,0.307104
2024-04-12,12:15,79.9,20.2,79.9,79.9,10.8,14.4,9,211.2,0.0,0.3088838
2024-04-12,12:20,81.1,20.8,81.1,81.1,10.6,14.7,9.2,199.2,0.0,0.3110768
2024-04-12,12:25,79.9,19.8,79.9,79.9,10.6,13.8,9,220.1,0.0,0.3118205
2024-04-12,12:30,81.4,19.3,81.4,81.4,9.9,16.4,10.2,189.8,0.0,0.3139887
2024-04-12,12:35,81.4,19.3,81.4,81.4,9.9,13,10.1,205.2,0.0,0.3140953
2024-04-12,12:40,81.4,18.9,81.4,81.4,9.7,17.7,12.3,200.1,0.0,0.3150822
2024-04-12,12:45,81.3,19,81.3,81.3,9.8,17.3,12.7,209,0.0,0.3146369
2024-04-12,12:50,81.6,20.3,81.6,81.6,10.2,15.6,10.9,199.2,0.0,0.3146348
2024-04-12,12:55,82.7,19,82.7,82.7,9.4,17.3,10.9,201.1,0.0,0.3156515
2024-04-12,13:00,81.2,17.7,81.2,81.2,9.3,15.2,10.8,227.1,0.0,0.3144257
2024-04-12,13:05,81.4,17.9,81.4,81.4,9.3,16.3,10.7,227.1,0.0,0.3144748
2024-04-12,13:10,81.1,17.5,81.1,81.1,9.2,15.8,9.9,200.9,0.0,0.3142387
2024-04-12,13:15,80.9,16,80.9,80.9,8.7,18.5,13.6,189.5,0.0,0.3142077
2024-04-12,13:20,81,16.7,81.0,81,9.0,19.9,13.9,195.7,0.0,0.3127877
2024-04-12,13:25,82.4,16.5,82.4,82.4,8.5,17.2,12.9,203.9,0.0,0.3124629
2024-04-12,13:30,81.6,17,81.6,81.6,8.9,19.4,14.9,196.2,0.0,0.3120591
2024-04-12,13:35,82,15.4,82.0,82,8.2,22.9,15.3,189.7,0.0,0.310777
2024-04-12,13:40,82,15.4,82.0,82,8.2,18.9,14.5,188.9,0.0,0.3096808
2024-04-12,13:45,82.8,15.9,82.8,82.8,8.2,19.8,12.7,200.3,0.0,0.3084742
2024-04-12,13:50,81.6,16.7,81.6,81.6,8.8,18.7,12.4,204,0.0,0.3058544
2024-04-12,13:55,81.6,15.9,81.6,81.6,8.5,20.3,14.4,206.3,0.0,0.3037685
2024-04-12,14:00,82.4,18.1,82.4,82.4,9.1,16.9,12.8,195.8,0.0,0.3018095
2024-04-12,14:05,82.8,18.1,82.8,82.8,9.0,16,12.1,197.1,0.0,0.3000346
2024-04-12,14:10,82.5,17,82.5,82.5,8.6,19.1,13.9,210.6,0.0,0.2975162
2024-04-12,14:15,82.9,18,82.9,82.9,8.9,17.2,12.7,200.4,0.0,0.2946298
2024-04-12,14:20,82.8,16.8,82.8,82.8,8.5,24.3,16.8,176.2,0.0,0.2927375
2024-04-12,14:25,82.6,17.1,82.6,82.6,8.7,24.9,17,174.2,0.0,0.2910408
2024-04-12,14:30,82.6,14.3,82.6,82.6,7.6,24.5,15.9,188.7,0.0,0.2876498
2024-04-12,14:35,83.2,17,83.2,83.2,8.4,18.9,13.4,185.3,0.0,0.2854034
2024-04-12,14:40,83.6,18.5,83.6,83.6,8.9,19.8,13.2,189.1,0.0,0.2817646
2024-04-12,14:45,83.3,17.1,83.3,83.3,8.5,22.6,12.8,187.5,0.0,0.2796061
2024-04-12,14:50,83.1,16.9,83.1,83.1,8.4,23.1,17,185.9,0.0,0.2764114
2024-04-12,14:55,82.7,15.8,82.7,82.7,8.2,20,14.2,193.7,0.0,0.2736987
2024-04-12,15:00,82.7,15.3,82.7,82.7,8.0,21.6,14.8,204.8,0.0,0.270093
2024-04-12,15:05,82.9,15.4,82.9,82.9,7.9,19.4,13.5,189.8,0.0,0.2656414
2024-04-12,15:10,82.7,16,82.7,82.7,8.2,24.2,17.4,175.7,0.0,0.2615193
2024-04-12,15:15,83.9,16.6,83.9,83.9,8.1,17.1,12.5,191.1,0.0,0.2570444
2024-04-12,15:20,84,17.2,84.0,84,8.3,15.6,11.6,195.8,0.0,0.2522947
2024-04-12,15:25,84.1,16.9,84.1,84.1,8.2,18.5,13.8,194.1,0.0,0.2490579
2024-04-12,15:30,83.3,15.5,83.3,83.3,7.9,20.1,14.8,217.6,0.0,0.2448844
2024-04-12,15:35,82.5,15.3,82.5,82.5,8.0,19.4,15.1,190.4,0.0,0.2396841
2024-04-12,15:40,82.7,15.6,82.7,82.7,8.1,19.7,14.4,183,0.0,0.2355511
2024-04-12,15:45,82.7,15,82.7,82.7,7.9,17.8,12.9,195.9,0.0,0.2302047
2024-04-12,15:50,82.7,15.3,82.7,82.7,8.0,22.2,15.5,185.7,0.0,0.2259911
2024-04-12,15:55,83.1,14.6,83.1,83.1,7.6,20.9,14,188,0.0,0.2216279
2024-04-12,16:00,83.2,15,83.2,83.2,7.7,18.6,11.9,195.5,0.0,0.2168168
2024-04-12,16:05,82.8,14.5,82.8,82.8,7.7,21,15.5,192,0.0,0.2122624
2024-04-12,16:10,83.3,15.2,83.3,83.3,7.8,20.3,11.9,192.9,0.0,0.206993
2024-04-12,16:15,83.3,15.9,83.3,83.3,8.0,18.3,14.3,182.8,0.0,0.2026156
2024-04-12,16:20,83.9,16.1,83.9,83.9,7.9,19.2,12.9,191.1,0.0,0.1969215
2024-04-12,16:25,83.3,14.9,83.3,83.3,7.7,17.1,12.2,182.1,0.0,0.1909056
2024-04-12,16:30,83.6,16.3,83.6,83.6,8.1,20.5,13.2,195.4,0.0,0.1855232
2024-04-12,16:35,82.8,14.9,82.8,82.8,7.8,22.2,15.2,193.6,0.0,0.1802587
2024-04-12,16:40,82.7,15.7,82.7,82.7,8.1,20.5,15.7,182,0.0,0.1739621
2024-04-12,16:45,82.8,15.5,82.8,82.8,8.0,17.1,11.5,211,0.0,0.1690244
2024-04-12,16:50,83,15.9,83.0,83,8.1,16.6,10.8,193.2,0.0,0.1637725
2024-04-12,16:55,82.8,16.4,82.8,82.8,8.3,19.5,13.9,181.8,0.0,0.1578409
2024-04-12,17:00,82.5,15.8,82.5,82.5,8.2,18.2,14.3,182.9,0.0,0.1518957
2024-04-12,17:05,82.8,16.2,82.8,82.8,8.3,23,15.1,185.2,0.0,0.1460426
2024-04-12,17:10,82.5,15.3,82.5,82.5,8.0,18.8,14.7,178.8,0.0,0.1401456
2024-04-12,17:15,82,15.9,82.0,82,8.4,21.4,16.9,190.1,0.0,0.1344857
2024-04-12,17:20,81.9,15.5,81.9,81.9,8.3,21.9,14.6,189.6,0.0,0.1290554
2024-04-12,17:25,82,16.4,82.0,82,8.5,17.1,13.5,194.5,0.0,0.1228036
2024-04-12,17:30,81.8,16.3,81.8,81.8,8.6,21,16.7,175,0.0,0.1172453